Port Huron, MI

5:44 AM EDT on May 27, 2017 (GMT -0400)
Saint Clair County International

Weather History for KPHN - November, 2012

Change the Weather History Date:

Saturday, November 17, 2012

  Actual Average (KMTC) Record (KMTC)
Temperature  
Mean Temperature 38 °F -  
Max Temperature 51 °F 47 °F 68 °F (1953)
Min Temperature 26 °F 32 °F 13 °F (1959)
Degree Days  
Heating Degree Days 26    
Moisture  
Dew Point 33 °F    
Average Humidity 85    
Maximum Humidity 100    
Minimum Humidity 54    
Precipitation  
Precipitation 0.00 in - - ()
Sea Level Pressure  
Sea Level Pressure 30.57 in    
Wind  
Wind Speed 1 mph (South)    
Max Wind Speed 7 mph    
Max Gust Speed -    
Visibility 3 miles    
Events Fog    
Averages and records for this station are not official NWS values.
T = Trace of Precipitation, MM = Missing Value Source: NWS Daily Summary

Daily Weather History Graph

Daily Weather History Graph

Search for Another Location

Airport or City:

Trip Planner

Search our weather history database for the weather conditions in past years. The results will help you decide how hot, cold, wet, or windy it might be!

Date:

Astronomy

Nov. 17, 2012 Rise Set
Actual Time 7:25 AM EST 5:04 PM EST
Civil Twilight 6:54 AM EST 5:35 PM EST
Nautical Twilight 6:20 AM EST 6:09 PM EST
Astronomical Twilight 5:46 AM EST 6:43 PM EST
Moon 11:09 AM EST (11/17) 9:13 PM EST (11/17)
Length of Visible Light 10h 40m
Length of Day
9h 39m
Waxing Crescent, 20% of the Moon is Illuminated
Nov 17
Waxing Crescent
Nov 20
First Quarter
Nov 28
Full
Dec 6
Last Quarter
Dec 13
New

Hourly Weather History & Observations

Time (EST) Temp. Windchill Dew Point Humidity Pressure Visibility Wind Dir Wind Speed Gust Speed Precip Events Conditions
12:16 AM 28.4 °F - 28.4 °F 100% 30.52 in 0.2 mi Calm Calm - N/A Fog Light Freezing Fog
12:36 AM 28.4 °F - 28.4 °F 100% 30.52 in 0.2 mi Calm Calm - N/A Fog Light Freezing Fog
12:56 AM 28.4 °F - 28.4 °F 100% 30.52 in 0.2 mi Calm Calm - N/A Fog Light Freezing Fog
1:16 AM 28.4 °F - 28.4 °F 100% 30.52 in 0.2 mi Calm Calm - N/A Fog Light Freezing Fog
1:36 AM 28.4 °F - 28.4 °F 100% 30.52 in 0.2 mi Calm Calm - N/A Fog Light Freezing Fog
1:56 AM 28.4 °F - 26.6 °F 93% 30.53 in 0.2 mi Calm Calm - N/A Fog Light Freezing Fog
2:16 AM 28.4 °F - 26.6 °F 93% 30.53 in 0.2 mi Calm Calm - N/A Fog Light Freezing Fog
2:36 AM 28.4 °F - 26.6 °F 93% 30.54 in 0.5 mi Calm Calm - N/A Fog Light Freezing Fog
2:56 AM 26.6 °F - 26.6 °F 100% 30.53 in 0.2 mi Calm Calm - N/A Fog Light Freezing Fog
3:16 AM 26.6 °F - 26.6 °F 100% 30.53 in 0.2 mi Calm Calm - N/A Fog Light Freezing Fog
3:36 AM 26.6 °F - 26.6 °F 100% 30.54 in 0.2 mi Calm Calm - N/A Fog Light Freezing Fog
3:56 AM - - - N/A% 30.54 in 0.2 mi Calm Calm - N/A Fog Fog
4:16 AM - - - N/A% 30.54 in 0.2 mi Calm Calm - N/A Fog Fog
4:36 AM - - - N/A% 30.55 in 0.2 mi Calm Calm - N/A Fog Fog
4:56 AM - - - N/A% 30.55 in 0.2 mi Calm Calm - N/A Fog Fog
5:16 AM - - - N/A% 30.56 in 0.2 mi Calm Calm - N/A Fog Fog
5:36 AM - - - N/A% 30.57 in 0.2 mi Calm Calm - N/A Fog Fog
5:56 AM - - - N/A% 30.58 in 0.5 mi Calm Calm - N/A Fog Fog
6:16 AM - - - N/A% 30.58 in 0.2 mi Calm Calm - N/A Fog Fog
6:36 AM - - - N/A% 30.58 in 0.2 mi Calm Calm - N/A Fog Fog
6:56 AM - - - N/A% 30.58 in 0.2 mi Calm Calm - N/A Fog Fog
7:16 AM - - - N/A% 30.58 in 0.2 mi Calm Calm - N/A Fog Fog
7:36 AM - - - N/A% 30.59 in 0.2 mi Calm Calm - N/A Fog Fog
7:56 AM - - - N/A% 30.59 in 0.2 mi Calm Calm - N/A Fog Fog
8:16 AM - - - N/A% 30.60 in 0.2 mi Calm Calm - N/A Fog Fog
8:36 AM - - - N/A% 30.60 in 0.2 mi Calm Calm - N/A Fog Fog
8:56 AM - - - N/A% 30.60 in 0.2 mi Calm Calm - N/A Fog Fog
9:16 AM - - - N/A% 30.61 in 0.2 mi Calm Calm - N/A Fog Fog
9:36 AM - - - N/A% 30.61 in 0.2 mi Calm Calm - N/A Fog Fog
9:56 AM - - - N/A% 30.61 in 0.2 mi Calm Calm - N/A Fog Fog
10:16 AM 33.8 °F - 33.8 °F 100% 30.62 in 0.2 mi Calm Calm - N/A Fog Fog
10:36 AM 37.4 °F - 35.6 °F 93% 30.62 in 1.0 mi Calm Calm - N/A   Overcast
10:56 AM 39.2 °F - 37.4 °F 93% 30.62 in 1.8 mi Calm Calm - N/A   Mostly Cloudy
11:16 AM 41.0 °F - 39.2 °F 93% 30.62 in 2.5 mi Calm Calm - N/A   Clear
11:36 AM 42.8 °F - 41.0 °F 93% 30.62 in 4.0 mi Calm Calm - N/A   Clear
11:56 AM 42.8 °F - 42.8 °F 100% 30.61 in 5.0 mi Calm Calm - N/A   Clear
12:16 PM 46.4 °F 43.5 °F 37.4 °F 71% 30.60 in 7.0 mi South 5.8 mph - N/A   Clear
12:36 PM 48.2 °F - 37.4 °F 66% 30.59 in 7.0 mi SSW 4.6 mph - N/A   Clear
12:56 PM 50.0 °F - 37.4 °F 62% 30.59 in 10.0 mi SSW 5.8 mph - N/A   Clear
1:16 PM 50.0 °F - 37.4 °F 62% 30.58 in 10.0 mi SSW 3.5 mph - N/A   Clear
1:36 PM 50.0 °F - 37.4 °F 62% 30.58 in 10.0 mi SSE 3.5 mph - N/A   Clear
1:56 PM 51.8 °F - 37.4 °F 58% 30.57 in 10.0 mi South 5.8 mph - N/A   Clear
2:16 PM 51.8 °F - 37.4 °F 58% 30.57 in 10.0 mi South 4.6 mph - N/A   Clear
2:36 PM 51.8 °F - 35.6 °F 54% 30.57 in 10.0 mi South 6.9 mph - N/A   Clear
2:56 PM 51.8 °F - 35.6 °F 54% 30.57 in 10.0 mi SSW 6.9 mph - N/A   Clear
3:16 PM 51.8 °F - 35.6 °F 54% 30.57 in 10.0 mi South 5.8 mph - N/A   Clear
3:36 PM 50.0 °F - 37.4 °F 62% 30.57 in 10.0 mi South 5.8 mph - N/A   Clear
3:56 PM 50.0 °F - 37.4 °F 62% 30.57 in 10.0 mi South 5.8 mph - N/A   Clear
4:16 PM 50.0 °F - 37.4 °F 62% 30.57 in 10.0 mi South 3.5 mph - N/A   Clear
4:36 PM 48.2 °F - 35.6 °F 62% 30.57 in 10.0 mi Calm Calm - N/A   Clear
4:56 PM 44.6 °F - 35.6 °F 71% 30.57 in 10.0 mi Calm Calm - N/A   Clear
5:16 PM 41.0 °F - 35.6 °F 81% 30.57 in 7.0 mi Calm Calm - N/A   Clear
5:36 PM 39.2 °F - 33.8 °F 81% 30.57 in 7.0 mi Calm Calm - N/A   Clear
5:56 PM 39.2 °F - 33.8 °F 81% 30.57 in 7.0 mi Calm Calm - N/A   Clear
6:16 PM 35.6 °F - 32.0 °F 87% 30.57 in 7.0 mi Calm Calm - N/A   Clear
6:36 PM 35.6 °F - 32.0 °F 87% 30.57 in 5.0 mi Calm Calm - N/A   Clear
6:56 PM 33.8 °F - 32.0 °F 93% 30.57 in 7.0 mi Calm Calm - N/A   Clear
7:16 PM 35.6 °F - 32.0 °F 87% 30.57 in 7.0 mi Calm Calm - N/A   Clear
7:36 PM 33.8 °F - 30.2 °F 87% 30.57 in 5.0 mi Calm Calm - N/A   Clear
7:56 PM 33.8 °F - 32.0 °F 93% 30.57 in 5.0 mi Calm Calm - N/A   Clear
8:16 PM 33.8 °F - 32.0 °F 93% 30.57 in 5.0 mi Calm Calm - N/A   Clear
8:36 PM 32.0 °F - 30.2 °F 93% 30.57 in 4.0 mi Calm Calm - N/A   Clear
8:56 PM 32.0 °F - 32.0 °F 100% 30.57 in 3.0 mi Calm Calm - N/A   Clear
9:16 PM 33.8 °F - 33.8 °F 100% 30.57 in 1.8 mi Calm Calm - N/A   Mist
9:36 PM 32.0 °F - 32.0 °F 100% 30.57 in 0.5 mi Calm Calm - N/A Fog Fog
9:56 PM 32.0 °F - 32.0 °F 100% 30.57 in 0.5 mi Calm Calm - N/A Fog Fog
10:16 PM 32.0 °F - 30.2 °F 93% 30.57 in 0.2 mi Calm Calm - N/A Fog Fog
10:36 PM 32.0 °F - 30.2 °F 93% 30.57 in 0.2 mi Calm Calm - N/A Fog Light Freezing Fog
10:56 PM 30.2 °F - 30.2 °F 100% 30.57 in 0.2 mi Calm Calm - N/A Fog Light Freezing Fog
11:16 PM 28.4 °F - 28.4 °F 100% 30.57 in 0.2 mi Calm Calm - N/A Fog Light Freezing Fog
11:36 PM 28.4 °F - 28.4 °F 100% 30.57 in 0.2 mi Calm Calm - N/A Fog Light Freezing Fog
11:56 PM 28.4 °F 24.6 °F 28.4 °F 100% 30.57 in 0.2 mi SE 3.5 mph - N/A Fog Light Freezing Fog